TimeEDT,TemperatureF,Dew PointF,Humidity,Sea Level PressureIn,VisibilityMPH,Wind Direction,Wind SpeedMPH,Gust SpeedMPH,PrecipitationIn,Events,Conditions,WindDirDegrees,DateUTC
12:54 AM,52.0,36.0,54,30.08,10.0,Calm,Calm,-,0.00,Rain,Light Rain,0,2013-05-15 04:54:00
1:54 AM,51.1,39.9,66,30.06,10.0,Calm,Calm,-,0.00,,Overcast,0,2013-05-15 05:54:00
2:54 AM,50.0,41.0,71,30.04,10.0,Calm,Calm,-,N/A,,Overcast,0,2013-05-15 06:54:00
3:54 AM,50.0,42.1,74,30.03,10.0,Calm,Calm,-,N/A,,Overcast,0,2013-05-15 07:54:00
4:54 AM,51.1,42.1,71,30.02,10.0,Calm,Calm,-,N/A,,Overcast,0,2013-05-15 08:54:00
5:54 AM,51.1,43.0,74,30.01,10.0,Calm,Calm,-,N/A,,Overcast,0,2013-05-15 09:54:00
6:54 AM,52.0,44.1,74,30.00,10.0,Calm,Calm,-,N/A,,Overcast,0,2013-05-15 10:54:00
7:54 AM,55.0,45.0,69,29.98,10.0,Calm,Calm,-,N/A,,Overcast,0,2013-05-15 11:54:00
8:54 AM,57.9,48.0,70,29.96,10.0,Variable,5.8,-,N/A,,Partly Cloudy,0,2013-05-15 12:54:00
9:54 AM,59.0,50.0,72,29.96,10.0,Variable,5.8,-,N/A,,Overcast,0,2013-05-15 13:54:00
10:54 AM,62.1,50.0,65,29.91,10.0,Variable,5.8,-,N/A,,Mostly Cloudy,0,2013-05-15 14:54:00
11:54 AM,64.9,51.1,61,29.90,10.0,Calm,Calm,-,N/A,,Clear,0,2013-05-15 15:54:00
12:54 PM,68.0,52.0,56,29.87,10.0,South,4.6,-,N/A,,Clear,180,2013-05-15 16:54:00
1:54 PM,66.9,51.1,57,29.87,10.0,South,5.8,-,0.00,,Mostly Cloudy,180,2013-05-15 17:54:00
2:54 PM,66.9,52.0,59,29.80,10.0,South,10.4,17.3,N/A,,Clear,190,2013-05-15 18:54:00
3:54 PM,70.0,55.9,61,29.76,10.0,SW,8.1,-,N/A,,Clear,230,2013-05-15 19:54:00
4:54 PM,70.0,55.0,59,29.74,10.0,SW,8.1,-,N/A,,Clear,230,2013-05-15 20:54:00
5:54 PM,71.1,55.0,57,29.74,10.0,SW,11.5,18.4,N/A,,Clear,230,2013-05-15 21:54:00
6:54 PM,71.1,55.0,57,29.72,10.0,SSW,4.6,-,N/A,,Clear,200,2013-05-15 22:54:00
7:54 PM,70.0,55.9,61,29.72,10.0,Calm,Calm,-,N/A,,Partly Cloudy,0,2013-05-15 23:54:00
8:54 PM,68.0,57.0,68,29.72,10.0,Calm,Calm,-,N/A,,Clear,0,2013-05-16 00:54:00
9:54 PM,63.0,57.0,81,29.74,10.0,Calm,Calm,-,N/A,,Clear,0,2013-05-16 01:54:00
10:54 PM,62.1,57.0,84,29.73,10.0,Calm,Calm,-,N/A,,Clear,0,2013-05-16 02:54:00
11:54 PM,60.1,55.9,86,29.74,10.0,NNE,10.4,-,N/A,,Partly Cloudy,30,2013-05-16 03:54:00